Terminal Aerodrome Forecast
Issued by NWS

Home | Current Version | Previous Version | Text Only | Print | Product List | Glossary On
Versions: 1 2 3 4 5 6 7 8 9 10 11 12 13 14 15
000
FTUS45 KVEF 200500
TAFDAG
TAF
KDAG 200529Z 2006/2106 28009KT P6SM SKC
     FM201900 07011KT P6SM SCT080
     FM210300 25010KT P6SM SCT250=

USA.gov is the U.S. government's official web portal to all federal, state and local government web resources and services.